ProjectID,Date,Electric Generation,Electric Utility Import,Facility Electric Load
,YYYY-MM-DD,kW,kW,kW
288,2015-12-01,0.0,,0.0
288,2015-12-02,0.0,,0.0
288,2015-12-03,0.0,,0.0
288,2015-12-04,0.0,,0.0
288,2015-12-05,0.0,,0.0
288,2015-12-06,0.0,,0.0
288,2015-12-07,0.0,,0.0
288,2015-12-08,0.0,,0.0
288,2015-12-09,0.0,,0.0
288,2015-12-10,0.0,,0.0
288,2015-12-11,0.0,,0.0
288,2015-12-12,0.0,,0.0
288,2015-12-13,0.0,,0.0
288,2015-12-14,0.0,,0.0
288,2015-12-15,0.0,,0.0
288,2015-12-16,0.0,,0.0
288,2015-12-17,0.0,,0.0
288,2015-12-18,0.0,,0.0
288,2015-12-19,0.0,,0.0
288,2015-12-20,0.0,,0.0
288,2015-12-21,0.0,,0.0
288,2015-12-22,0.0,,0.0
288,2015-12-23,0.0,,0.0
288,2015-12-24,0.0,,0.0
288,2015-12-25,0.0,,0.0
288,2015-12-26,0.0,,0.0
288,2015-12-27,0.0,,0.0
288,2015-12-28,0.0,,0.0
288,2015-12-29,0.0,,0.0
288,2015-12-30,0.0,,0.0
288,2015-12-31,0.37916666666666665,,0.37916666666666665
288,2016-01-01,3.2641666666666667,,3.2641666666666667
288,2016-01-02,0.03833333333333334,,0.03833333333333334
288,2016-01-03,2.5675,,2.5675
288,2016-01-04,1.15875,,1.15875
288,2016-01-05,13.719583333333333,,13.719583333333333
288,2016-01-06,42.88958333333333,,42.88958333333333
288,2016-01-07,50.31916666666667,,50.31916666666667
288,2016-01-08,22.509583333333335,,22.509583333333335
288,2016-01-09,11.645000000000001,,11.645000000000001
288,2016-01-10,11.70125,,11.70125
288,2016-01-11,0.8358333333333333,,0.8358333333333333
288,2016-01-12,1.2041666666666666,,1.2041666666666666
288,2016-01-13,1.3158333333333332,,1.3158333333333332
288,2016-01-14,0.02625,,0.02625
288,2016-01-15,13.924999999999999,,13.924999999999999
288,2016-01-16,4.785,,4.785
288,2016-01-17,25.527916666666666,,25.527916666666666
288,2016-01-18,8.584583333333333,,8.584583333333333
288,2016-01-19,46.556666666666665,,46.556666666666665
288,2016-01-20,30.967916666666667,,30.967916666666667
288,2016-01-21,17.95375,,17.95375
288,2016-01-22,9.1875,,9.1875
288,2016-01-23,2.965,,2.965
288,2016-01-24,3.8000000000000003,,3.8000000000000003
288,2016-01-25,23.354583333333334,,23.354583333333334
288,2016-01-26,18.197916666666668,,18.197916666666668
288,2016-01-27,1.7495833333333335,,1.7495833333333335
288,2016-01-28,38.86833333333333,,38.86833333333333
288,2016-01-29,8.635833333333332,,8.635833333333332
288,2016-01-30,44.46,,44.46
288,2016-01-31,32.73625,,32.73625
288,2016-02-01,39.09916666666667,,39.09916666666667
288,2016-02-02,50.1175,,50.1175
288,2016-02-03,24.08875,,24.08875
288,2016-02-04,26.227500000000003,,26.227500000000003
288,2016-02-05,3.1641666666666666,,3.1641666666666666
288,2016-02-06,33.44541666666667,,33.44541666666667
288,2016-02-07,67.61083333333333,,67.61083333333333
288,2016-02-08,30.382499999999997,,30.382499999999997
288,2016-02-09,27.032916666666665,,27.032916666666665
288,2016-02-10,27.63208333333333,,27.63208333333333
288,2016-02-11,17.874583333333334,,17.874583333333334
288,2016-02-12,41.42791666666667,,41.42791666666667
288,2016-02-13,1.8770833333333332,,1.8770833333333332
288,2016-02-14,3.3120833333333333,,3.3120833333333333
288,2016-02-15,0.5283333333333333,,0.5283333333333333
288,2016-02-16,0.0,,0.0
288,2016-02-17,0.1991666666666667,,0.1991666666666667
288,2016-02-18,4.015,,4.015
288,2016-02-19,4.341666666666667,,4.341666666666667
288,2016-02-20,62.97083333333333,,62.97083333333333
288,2016-02-21,26.132499999999997,,26.132499999999997
288,2016-02-22,72.10041666666667,,72.10041666666667
288,2016-02-23,71.3275,,71.3275
288,2016-02-24,9.71125,,9.71125
288,2016-02-25,13.313749999999999,,13.313749999999999
288,2016-02-26,36.899166666666666,,36.899166666666666
288,2016-02-27,62.048750000000005,,62.048750000000005
288,2016-02-28,80.18541666666667,,80.18541666666667
288,2016-02-29,36.072916666666664,,36.072916666666664
288,2016-03-01,42.680416666666666,,42.680416666666666
288,2016-03-02,58.12041666666667,,58.12041666666667
288,2016-03-03,39.35166666666667,,39.35166666666667
288,2016-03-04,21.114583333333332,,21.114583333333332
288,2016-03-05,37.28416666666667,,37.28416666666667
288,2016-03-06,88.4775,,88.4775
288,2016-03-07,79.28375,,79.28375
288,2016-03-08,65.46124999999999,,65.46124999999999
288,2016-03-09,68.24083333333333,,68.24083333333333
288,2016-03-10,12.719583333333333,,12.719583333333333
288,2016-03-11,38.04416666666666,,38.04416666666666
288,2016-03-12,78.10791666666667,,78.10791666666667
288,2016-03-13,38.0725,,38.0725
288,2016-03-14,42.266666666666666,,42.266666666666666
288,2016-03-15,13.091666666666667,,13.091666666666667
288,2016-03-16,38.2875,,38.2875
288,2016-03-17,75.04583333333333,,75.04583333333333
288,2016-03-18,17.199166666666667,,17.199166666666667
288,2016-03-19,110.43333333333334,,110.43333333333334
288,2016-03-20,93.53208333333333,,93.53208333333333
288,2016-03-21,42.055416666666666,,42.055416666666666
288,2016-03-22,49.26,,49.26
288,2016-03-23,7.727083333333333,,7.727083333333333
288,2016-03-24,36.28958333333333,,36.28958333333333
288,2016-03-25,16.26625,,16.26625
288,2016-03-26,103.83083333333333,,103.83083333333333
288,2016-03-27,102.58708333333334,,102.58708333333334
288,2016-03-28,24.379166666666666,,24.379166666666666
288,2016-03-29,111.30583333333334,,111.30583333333334
288,2016-03-30,98.56083333333333,,98.56083333333333
288,2016-03-31,21.881666666666664,,21.881666666666664
288,2016-04-01,61.88166666666667,,61.88166666666667
288,2016-04-02,60.893750000000004,,60.893750000000004
288,2016-04-03,42.76208333333333,,42.76208333333333
288,2016-04-04,0.20666666666666667,,0.20666666666666667
288,2016-04-05,28.594583333333333,,28.594583333333333
288,2016-04-06,45.3675,,45.3675
288,2016-04-07,47.068333333333335,,47.068333333333335
288,2016-04-08,40.69416666666667,,40.69416666666667
288,2016-04-09,62.96625,,62.96625
288,2016-04-10,59.69708333333333,,59.69708333333333
288,2016-04-11,13.369166666666667,,13.369166666666667
288,2016-04-12,50.24166666666667,,50.24166666666667
288,2016-04-13,90.38708333333334,,90.38708333333334
288,2016-04-14,116.58916666666666,,116.58916666666666
288,2016-04-15,113.09625,,113.09625
288,2016-04-16,110.94208333333334,,110.94208333333334
288,2016-04-17,113.00208333333335,,113.00208333333335
288,2016-04-18,110.32,,110.32
288,2016-04-19,99.84416666666668,,99.84416666666668
288,2016-04-20,117.04833333333333,,117.04833333333333
288,2016-04-21,57.32666666666666,,57.32666666666666
288,2016-04-22,62.12708333333333,,62.12708333333333
288,2016-04-23,97.67541666666666,,97.67541666666666
288,2016-04-24,97.98666666666666,,97.98666666666666
288,2016-04-25,52.612500000000004,,52.612500000000004
288,2016-04-26,19.031666666666666,,19.031666666666666
288,2016-04-27,120.04625,,120.04625
288,2016-04-28,64.56458333333333,,64.56458333333333
288,2016-04-29,30.5,,30.5
288,2016-04-30,60.62583333333333,,60.62583333333333
288,2016-05-01,16.08375,,16.08375
288,2016-05-02,26.274583333333336,,26.274583333333336
288,2016-05-03,51.053333333333335,,51.053333333333335
288,2016-05-04,59.29083333333333,,59.29083333333333
288,2016-05-05,57.00416666666666,,57.00416666666666
288,2016-05-06,84.64458333333333,,84.64458333333333
288,2016-05-07,86.64291666666666,,86.64291666666666
288,2016-05-08,95.35958333333333,,95.35958333333333
288,2016-05-09,113.02291666666667,,113.02291666666667
288,2016-05-10,97.38916666666667,,97.38916666666667
288,2016-05-11,110.77291666666667,,110.77291666666667
288,2016-05-12,88.16125,,88.16125
288,2016-05-13,79.54375,,79.54375
288,2016-05-14,48.06875,,48.06875
288,2016-05-15,68.39041666666667,,68.39041666666667
288,2016-05-16,122.40625,,122.40625
288,2016-05-17,58.80083333333334,,58.80083333333334
288,2016-05-18,97.08041666666666,,97.08041666666666
288,2016-05-19,70.73875,,70.73875
288,2016-05-20,109.79124999999999,,109.79124999999999
288,2016-05-21,40.214166666666664,,40.214166666666664
288,2016-05-22,82.84375,,82.84375
288,2016-05-23,116.46625,,116.46625
288,2016-05-24,115.62666666666667,,115.62666666666667
288,2016-05-25,111.65166666666666,,111.65166666666666
288,2016-05-26,62.81375,,62.81375
288,2016-05-27,96.45666666666666,,96.45666666666666
288,2016-05-28,81.55041666666666,,81.55041666666666
288,2016-05-29,70.25875,,70.25875
288,2016-05-30,110.96375,,110.96375
288,2016-05-31,112.25375000000001,,112.25375000000001
288,2016-06-01,111.85666666666667,,111.85666666666667
288,2016-06-02,55.81375,,55.81375
288,2016-06-03,107.76916666666666,,107.76916666666666
288,2016-06-04,103.35666666666667,,103.35666666666667
288,2016-06-05,37.15541666666667,,37.15541666666667
288,2016-06-06,116.87291666666665,,116.87291666666665
288,2016-06-07,75.015,,75.015
288,2016-06-08,43.82458333333333,,43.82458333333333
288,2016-06-09,107.61625,,107.61625
288,2016-06-10,110.22541666666666,,110.22541666666666
288,2016-06-11,93.79124999999999,,93.79124999999999
288,2016-06-12,108.68041666666666,,108.68041666666666
288,2016-06-13,46.66708333333333,,46.66708333333333
288,2016-06-14,120.25958333333334,,120.25958333333334
288,2016-06-15,96.3925,,96.3925
288,2016-06-16,91.19916666666667,,91.19916666666667
288,2016-06-17,117.71749999999999,,117.71749999999999
288,2016-06-18,102.15416666666665,,102.15416666666665
288,2016-06-19,107.58166666666666,,107.58166666666666
288,2016-06-20,93.08583333333333,,93.08583333333333
288,2016-06-21,118.60875,,118.60875
288,2016-06-22,103.54958333333333,,103.54958333333333
288,2016-06-23,87.97666666666667,,87.97666666666667
288,2016-06-24,116.06791666666668,,116.06791666666668
288,2016-06-25,97.57375,,97.57375
288,2016-06-26,100.14999999999999,,100.14999999999999
288,2016-06-27,102.57291666666667,,102.57291666666667
288,2016-06-28,96.26458333333333,,96.26458333333333
288,2016-06-29,71.07541666666667,,71.07541666666667
288,2016-06-30,108.88708333333334,,108.88708333333334
288,2016-07-01,62.52875,,62.52875
288,2016-07-02,108.72083333333335,,108.72083333333335
288,2016-07-03,108.39,,108.39
288,2016-07-04,104.40333333333332,,104.40333333333332
288,2016-07-05,85.50833333333333,,85.50833333333333
288,2016-07-06,96.09708333333333,,96.09708333333333
288,2016-07-07,98.56791666666668,,98.56791666666668
288,2016-07-08,58.03,,58.03
288,2016-07-09,87.625,,87.625
288,2016-07-10,100.98416666666667,,100.98416666666667
288,2016-07-11,86.88666666666667,,86.88666666666667
288,2016-07-12,69.30958333333334,,69.30958333333334
288,2016-07-13,96.13666666666667,,96.13666666666667
288,2016-07-14,83.76541666666667,,83.76541666666667
288,2016-07-15,95.59750000000001,,95.59750000000001
288,2016-07-16,85.89041666666667,,85.89041666666667
288,2016-07-17,95.65208333333334,,95.65208333333334
288,2016-07-18,71.845,,71.845
288,2016-07-19,82.89583333333333,,82.89583333333333
288,2016-07-20,111.08749999999999,,111.08749999999999
288,2016-07-21,101.82833333333333,,101.82833333333333
288,2016-07-22,104.53916666666667,,104.53916666666667
288,2016-07-23,96.64166666666667,,96.64166666666667
288,2016-07-24,75.98041666666667,,75.98041666666667
288,2016-07-25,42.39083333333333,,42.39083333333333
288,2016-07-26,99.92541666666666,,99.92541666666666
288,2016-07-27,106.78375,,106.78375
288,2016-07-28,53.98666666666667,,53.98666666666667
288,2016-07-29,80.835,,80.835
288,2016-07-30,52.05875,,52.05875
288,2016-07-31,52.43875,,52.43875
288,2016-08-01,71.95458333333333,,71.95458333333333
288,2016-08-02,105.10125,,105.10125
288,2016-08-03,109.98958333333333,,109.98958333333333
288,2016-08-04,105.10000000000001,,105.10000000000001
288,2016-08-05,79.86333333333333,,79.86333333333333
288,2016-08-06,95.40750000000001,,95.40750000000001
288,2016-08-07,92.21125,,92.21125
288,2016-08-08,107.84249999999999,,107.84249999999999
288,2016-08-09,93.36166666666666,,93.36166666666666
288,2016-08-10,84.06125,,84.06125
288,2016-08-11,72.99875,,72.99875
288,2016-08-12,89.51666666666667,,89.51666666666667
288,2016-08-13,60.04458333333333,,60.04458333333333
288,2016-08-14,53.15625,,53.15625
288,2016-08-15,50.564166666666665,,50.564166666666665
288,2016-08-16,54.85541666666666,,54.85541666666666
288,2016-08-17,86.16416666666667,,86.16416666666667
288,2016-08-18,75.63666666666667,,75.63666666666667
288,2016-08-19,80.63541666666667,,80.63541666666667
288,2016-08-20,79.39041666666667,,79.39041666666667
288,2016-08-21,54.95083333333333,,54.95083333333333
288,2016-08-22,91.70041666666667,,91.70041666666667
288,2016-08-23,100.51416666666667,,100.51416666666667
288,2016-08-24,103.22541666666666,,103.22541666666666
288,2016-08-25,63.07958333333334,,63.07958333333334
288,2016-08-26,93.71458333333334,,93.71458333333334
288,2016-08-27,98.53791666666666,,98.53791666666666
288,2016-08-28,89.92166666666667,,89.92166666666667
288,2016-08-29,93.04833333333333,,93.04833333333333
288,2016-08-30,92.35125,,92.35125
288,2016-08-31,48.1175,,48.1175
288,2016-09-01,74.28,,74.28
288,2016-09-02,69.62875,,69.62875
288,2016-09-03,103.47625,,103.47625
288,2016-09-04,98.86333333333333,,98.86333333333333
288,2016-09-05,98.32416666666667,,98.32416666666667
288,2016-09-06,80.11166666666666,,80.11166666666666
288,2016-09-07,82.91791666666667,,82.91791666666667
288,2016-09-08,62.682500000000005,,62.682500000000005
288,2016-09-09,76.7525,,76.7525
288,2016-09-10,88.05083333333333,,88.05083333333333
288,2016-09-11,90.74374999999999,,90.74374999999999
288,2016-09-12,91.12124999999999,,91.12124999999999
288,2016-09-13,97.29,,97.29
288,2016-09-14,60.63666666666666,,60.63666666666666
288,2016-09-15,100.49583333333334,,100.49583333333334
288,2016-09-16,94.46333333333332,,94.46333333333332
288,2016-09-17,40.31666666666667,,40.31666666666667
288,2016-09-18,48.928333333333335,,48.928333333333335
288,2016-09-19,71.1225,,71.1225
288,2016-09-20,90.14166666666667,,90.14166666666667
288,2016-09-21,89.11333333333333,,89.11333333333333
288,2016-09-22,89.01416666666667,,89.01416666666667
288,2016-09-23,17.542916666666667,,17.542916666666667
288,2016-09-24,86.70041666666667,,86.70041666666667
288,2016-09-25,95.14083333333333,,95.14083333333333
288,2016-09-26,51.66,,51.66
288,2016-09-27,83.63541666666667,,83.63541666666667
288,2016-09-28,83.91041666666666,,83.91041666666666
288,2016-09-29,11.751249999999999,,11.751249999999999
288,2016-09-30,40.31791666666667,,40.31791666666667
288,2016-10-01,33.0625,,33.0625
288,2016-10-02,47.94541666666667,,47.94541666666667
288,2016-10-03,38.49333333333333,,38.49333333333333
288,2016-10-04,67.24625,,67.24625
288,2016-10-05,84.57416666666667,,84.57416666666667
288,2016-10-06,80.99208333333333,,80.99208333333333
288,2016-10-07,80.20333333333333,,80.20333333333333
288,2016-10-08,36.54291666666666,,36.54291666666666
288,2016-10-09,24.778750000000002,,24.778750000000002
288,2016-10-10,90.48708333333333,,90.48708333333333
288,2016-10-11,63.20416666666667,,63.20416666666667
288,2016-10-12,82.98833333333333,,82.98833333333333
288,2016-10-13,37.84625,,37.84625
288,2016-10-14,86.94916666666667,,86.94916666666667
288,2016-10-15,81.59625,,81.59625
288,2016-10-16,43.58041666666667,,43.58041666666667
288,2016-10-17,23.43875,,23.43875
288,2016-10-18,53.973749999999995,,53.973749999999995
288,2016-10-19,77.40875,,77.40875
288,2016-10-20,5.9025,,5.9025
288,2016-10-21,4.900833333333334,,4.900833333333334
288,2016-10-22,29.112083333333334,,29.112083333333334
288,2016-10-23,47.22125,,47.22125
288,2016-10-24,44.6275,,44.6275
288,2016-10-25,38.93083333333333,,38.93083333333333
288,2016-10-26,48.28125,,48.28125
288,2016-10-27,6.479166666666667,,6.479166666666667
288,2016-10-28,51.59791666666666,,51.59791666666666
288,2016-10-29,13.798333333333334,,13.798333333333334
288,2016-10-30,7.251666666666666,,7.251666666666666
288,2016-10-31,63.32666666666666,,63.32666666666666
288,2016-11-01,63.23166666666666,,63.23166666666666
288,2016-11-02,33.36083333333333,,33.36083333333333
288,2016-11-03,16.915,,16.915
288,2016-11-04,59.432500000000005,,59.432500000000005
288,2016-11-05,34.86333333333334,,34.86333333333334
288,2016-11-06,67.45333333333333,,67.45333333333333
288,2016-11-07,69.59625,,69.59625
288,2016-11-08,37.85958333333333,,37.85958333333333
288,2016-11-09,12.067916666666667,,12.067916666666667
288,2016-11-10,55.06791666666667,,55.06791666666667
288,2016-11-11,33.86291666666667,,33.86291666666667
288,2016-11-12,69.17291666666667,,69.17291666666667
288,2016-11-13,66.89833333333333,,66.89833333333333
288,2016-11-14,63.096666666666664,,63.096666666666664
288,2016-11-15,56.78125,,56.78125
288,2016-11-16,6.6066666666666665,,6.6066666666666665
288,2016-11-17,62.11333333333334,,62.11333333333334
288,2016-11-18,57.21083333333333,,57.21083333333333
288,2016-11-19,19.440416666666668,,19.440416666666668
288,2016-11-20,0.7508333333333334,,0.7508333333333334
288,2016-11-21,5.256666666666667,,5.256666666666667
288,2016-11-22,19.695416666666667,,19.695416666666667
288,2016-11-23,42.82583333333333,,42.82583333333333
288,2016-11-24,5.12125,,5.12125
288,2016-11-25,11.304583333333333,,11.304583333333333
288,2016-11-26,10.12875,,10.12875
288,2016-11-27,24.9375,,24.9375
288,2016-11-28,46.57041666666667,,46.57041666666667
288,2016-11-29,24.91416666666667,,24.91416666666667
288,2016-11-30,12.251249999999999,,12.251249999999999
288,2016-12-01,15.041666666666666,,15.041666666666666
288,2016-12-02,9.5275,,9.5275
288,2016-12-03,6.355416666666667,,6.355416666666667
288,2016-12-04,23.564999999999998,,23.564999999999998
288,2016-12-05,20.255416666666665,,20.255416666666665
288,2016-12-06,15.902500000000002,,15.902500000000002
288,2016-12-07,7.56,,7.56
288,2016-12-08,2.1629166666666664,,2.1629166666666664
288,2016-12-09,2.3841666666666668,,2.3841666666666668
288,2016-12-10,2.6041666666666665,,2.6041666666666665
288,2016-12-11,0.7445833333333334,,0.7445833333333334
288,2016-12-12,5.135416666666667,,5.135416666666667
288,2016-12-13,15.834583333333333,,15.834583333333333
288,2016-12-14,25.99208333333333,,25.99208333333333
288,2016-12-15,1.8004166666666668,,1.8004166666666668
288,2016-12-16,2.0,,2.0
288,2016-12-17,0.23291666666666666,,0.23291666666666666
288,2016-12-18,19.96625,,19.96625
288,2016-12-19,26.392916666666665,,26.392916666666665
288,2016-12-20,27.524583333333336,,27.524583333333336
288,2016-12-21,17.099166666666665,,17.099166666666665
288,2016-12-22,1.0508333333333333,,1.0508333333333333
288,2016-12-23,26.15625,,26.15625
288,2016-12-24,4.892083333333333,,4.892083333333333
288,2016-12-25,10.6875,,10.6875
288,2016-12-26,21.84,,21.84
288,2016-12-27,3.1208333333333336,,3.1208333333333336
288,2016-12-28,14.820416666666667,,14.820416666666667
288,2016-12-29,1.7983333333333331,,1.7983333333333331
288,2016-12-30,0.4475,,0.4475
288,2016-12-31,10.19375,,10.19375
288,2017-01-01,46.166666666666664,,46.166666666666664
288,2017-01-02,9.2425,,9.2425
288,2017-01-03,4.6875,,4.6875
288,2017-01-04,21.756666666666664,,21.756666666666664
288,2017-01-05,3.25125,,3.25125
288,2017-01-06,2.7304166666666667,,2.7304166666666667
288,2017-01-07,4.199166666666667,,4.199166666666667
288,2017-01-08,1.5366666666666668,,1.5366666666666668
288,2017-01-09,1.2874999999999999,,1.2874999999999999
288,2017-01-10,0.20458333333333334,,0.20458333333333334
288,2017-01-11,46.45166666666666,,46.45166666666666
288,2017-01-12,6.367083333333333,,6.367083333333333
288,2017-01-13,43.87625,,43.87625
288,2017-01-14,10.56125,,10.56125
288,2017-01-15,10.6875,,10.6875
288,2017-01-16,42.15875,,42.15875
288,2017-01-17,4.03125,,4.03125
288,2017-01-18,8.411666666666667,,8.411666666666667
288,2017-01-19,7.085833333333333,,7.085833333333333
288,2017-01-20,13.53375,,13.53375
288,2017-01-21,41.490833333333335,,41.490833333333335
288,2017-01-22,12.378749999999998,,12.378749999999998
288,2017-01-23,12.355416666666665,,12.355416666666665
288,2017-01-24,0.09083333333333334,,0.09083333333333334
288,2017-01-25,0.8166666666666668,,0.8166666666666668
288,2017-01-26,19.81375,,19.81375
288,2017-01-27,19.62625,,19.62625
288,2017-01-28,4.114583333333333,,4.114583333333333
288,2017-01-29,1.2770833333333333,,1.2770833333333333
288,2017-01-30,3.5537500000000004,,3.5537500000000004
288,2017-01-31,1.1158333333333335,,1.1158333333333335
288,2017-02-01,36.02875,,36.02875
288,2017-02-02,4.59375,,4.59375
288,2017-02-03,3.8241666666666667,,3.8241666666666667
288,2017-02-04,4.6812499999999995,,4.6812499999999995
288,2017-02-05,8.019583333333333,,8.019583333333333
288,2017-02-06,39.54958333333334,,39.54958333333334
288,2017-02-07,7.852916666666666,,7.852916666666666
288,2017-02-08,31.138333333333335,,31.138333333333335
288,2017-02-09,8.760416666666666,,8.760416666666666
288,2017-02-10,34.95583333333334,,34.95583333333334
288,2017-02-11,15.273333333333333,,15.273333333333333
288,2017-02-12,9.798333333333334,,9.798333333333334
288,2017-02-13,23.545833333333334,,23.545833333333334
288,2017-02-14,72.96875,,72.96875
288,2017-02-15,27.251666666666665,,27.251666666666665
288,2017-02-16,4.4437500000000005,,4.4437500000000005
288,2017-02-17,53.385416666666664,,53.385416666666664
288,2017-02-18,74.79833333333333,,74.79833333333333
288,2017-02-19,85.45541666666666,,85.45541666666666
288,2017-02-20,87.78916666666667,,87.78916666666667
288,2017-02-21,30.251666666666665,,30.251666666666665
288,2017-02-22,51.195,,51.195
288,2017-02-23,40.947916666666664,,40.947916666666664
288,2017-02-24,50.11666666666667,,50.11666666666667
288,2017-02-25,11.145833333333334,,11.145833333333334
288,2017-02-26,35.69041666666667,,35.69041666666667
288,2017-02-27,77.1275,,77.1275
288,2017-02-28,35.447916666666664,,35.447916666666664
288,2017-03-01,42.27375,,42.27375
288,2017-03-02,47.8125,,47.8125
288,2017-03-03,3.7420833333333334,,3.7420833333333334
288,2017-03-04,5.21625,,5.21625
288,2017-03-05,39.92958333333333,,39.92958333333333
288,2017-03-06,51.145833333333336,,51.145833333333336
288,2017-03-07,23.427083333333332,,23.427083333333332
288,2017-03-08,53.08833333333333,,53.08833333333333
288,2017-03-09,54.510416666666664,,54.510416666666664
288,2017-03-10,32.08583333333333,,32.08583333333333
288,2017-03-11,14.882916666666667,,14.882916666666667
288,2017-03-12,28.697916666666668,,28.697916666666668
288,2017-03-13,38.75,,38.75
288,2017-03-14,0.3675,,0.3675
288,2017-03-15,1.15875,,1.15875
288,2017-03-16,54.70541666666667,,54.70541666666667
288,2017-03-17,96.77625,,96.77625
288,2017-03-18,6.5625,,6.5625
288,2017-03-19,26.59375,,26.59375
288,2017-03-20,37.53916666666667,,37.53916666666667
288,2017-03-21,94.53125,,94.53125
288,2017-03-22,108.82791666666667,,108.82791666666667
288,2017-03-23,107.76583333333333,,107.76583333333333
288,2017-03-24,49.552083333333336,,49.552083333333336
288,2017-03-25,11.729166666666666,,11.729166666666666
288,2017-03-26,52.677083333333336,,52.677083333333336
288,2017-03-27,32.072916666666664,,32.072916666666664
288,2017-03-28,20.78625,,20.78625
288,2017-03-29,72.07791666666667,,72.07791666666667
288,2017-03-30,28.185000000000002,,28.185000000000002
288,2017-03-31,19.72125,,19.72125
288,2017-04-01,19.987083333333334,,19.987083333333334
288,2017-04-02,96.42708333333333,,96.42708333333333
288,2017-04-03,79.73708333333333,,79.73708333333333
288,2017-04-04,31.341250000000002,,31.341250000000002
288,2017-04-05,57.627916666666664,,57.627916666666664
288,2017-04-06,11.554583333333333,,11.554583333333333
288,2017-04-07,16.72125,,16.72125
288,2017-04-08,113.5675,,113.5675
288,2017-04-09,101.90083333333332,,101.90083333333332
288,2017-04-10,69.83083333333333,,69.83083333333333
288,2017-04-11,38.64083333333333,,38.64083333333333
288,2017-04-12,30.547083333333333,,30.547083333333333
288,2017-04-13,73.33083333333333,,73.33083333333333
288,2017-04-14,112.71083333333333,,112.71083333333333
288,2017-04-15,55.90625,,55.90625
288,2017-04-16,75.94291666666668,,75.94291666666668
288,2017-04-17,108.49458333333332,,108.49458333333332
288,2017-04-18,112.41125,,112.41125
288,2017-04-19,27.53916666666667,,27.53916666666667